TimeEST,TemperatureF,Dew PointF,Humidity,Sea Level PressureIn,VisibilityMPH,Wind Direction,Wind SpeedMPH,Gust SpeedMPH,PrecipitationIn,Events,Conditions,WindDirDegrees,DateUTC
12:53 AM,57.0,48.9,74,30.17,10.0,North,10.4,-,N/A,,Clear,350,2012-12-30 05:53:00
1:53 AM,55.9,48.9,77,30.18,10.0,NNW,8.1,-,N/A,,Clear,340,2012-12-30 06:53:00
2:53 AM,55.0,48.0,77,30.18,10.0,North,11.5,-,N/A,,Clear,360,2012-12-30 07:53:00
3:53 AM,52.0,46.0,80,30.20,10.0,North,10.4,-,N/A,,Clear,350,2012-12-30 08:53:00
4:53 AM,50.0,43.0,77,30.22,10.0,North,15.0,-,N/A,,Clear,350,2012-12-30 09:53:00
5:53 AM,46.9,39.0,74,30.24,10.0,North,11.5,21.9,N/A,,Clear,10,2012-12-30 10:53:00
6:53 AM,45.0,37.9,76,30.26,10.0,North,16.1,25.3,N/A,,Clear,10,2012-12-30 11:53:00
7:53 AM,44.1,36.0,73,30.29,10.0,NNE,12.7,24.2,N/A,,Clear,20,2012-12-30 12:53:00
8:53 AM,45.0,35.1,68,30.31,10.0,NNE,17.3,24.2,N/A,,Clear,30,2012-12-30 13:53:00
9:53 AM,48.9,35.1,59,30.33,10.0,NE,15.0,21.9,N/A,,Clear,40,2012-12-30 14:53:00
10:53 AM,51.1,36.0,56,30.33,10.0,NE,16.1,-,N/A,,Clear,50,2012-12-30 15:53:00
11:53 AM,55.0,37.0,51,30.31,10.0,ENE,13.8,-,N/A,,Clear,60,2012-12-30 16:53:00
12:53 PM,59.0,37.0,44,30.28,10.0,NE,10.4,19.6,N/A,,Clear,40,2012-12-30 17:53:00
1:53 PM,61.0,37.9,42,30.26,10.0,ENE,11.5,19.6,N/A,,Clear,60,2012-12-30 18:53:00
2:53 PM,62.1,37.9,41,30.26,10.0,NE,12.7,-,N/A,,Clear,50,2012-12-30 19:53:00
3:53 PM,62.1,39.9,44,30.27,10.0,ENE,11.5,-,N/A,,Clear,60,2012-12-30 20:53:00
4:53 PM,60.1,41.0,49,30.28,10.0,ENE,10.4,-,N/A,,Clear,60,2012-12-30 21:53:00
5:53 PM,57.9,43.0,58,30.29,10.0,ENE,5.8,-,N/A,,Clear,60,2012-12-30 22:53:00
6:53 PM,55.0,44.1,67,30.31,10.0,NE,6.9,-,N/A,,Partly Cloudy,50,2012-12-30 23:53:00
7:53 PM,54.0,46.0,75,30.31,10.0,NE,5.8,-,N/A,,Clear,50,2012-12-31 00:53:00
8:53 PM,52.0,46.0,80,30.32,10.0,NE,5.8,-,N/A,,Clear,50,2012-12-31 01:53:00
9:53 PM,52.0,46.0,80,30.31,10.0,NE,6.9,-,N/A,,Clear,40,2012-12-31 02:53:00
10:53 PM,52.0,45.0,77,30.31,10.0,NE,6.9,-,N/A,,Clear,40,2012-12-31 03:53:00
11:53 PM,50.0,45.0,83,30.31,10.0,NNE,6.9,-,N/A,,Clear,30,2012-12-31 04:53:00